BFL227 AGGH-AYPY

Flight info

Callsign BFL227
Flight time N/A
Altitude 16000
Route TAMOR DCT AYMS DCT 11S50 DCT LOTGU
Aircraft TBM9/L-SDFGRWY/S

Departure

Time 2026-04-26 09:12
Airport Honiara International Airport (AGGH)

Arrival

Time N/A
Airport Port Moresby Jacksons International Airport (AYPY)
Time Latitude Longitude Altitude Speed Heading
2026-04-26 08:45 -9.42890 160.04882 30 ft 0 kts 341°
2026-04-26 09:05 -9.42899 160.04906 30 ft 7 kts 121°
2026-04-26 09:05 -9.42929 160.04960 29 ft 10 kts 131°
2026-04-26 09:06 -9.42972 160.05021 28 ft 13 kts 81°
2026-04-26 09:06 -9.42938 160.05111 27 ft 15 kts 66°
2026-04-26 09:06 -9.42898 160.05212 28 ft 16 kts 65°
2026-04-26 09:06 -9.42854 160.05321 28 ft 18 kts 71°
2026-04-26 09:07 -9.42804 160.05443 26 ft 20 kts 68°
2026-04-26 09:07 -9.42750 160.05580 25 ft 22 kts 73°
2026-04-26 09:07 -9.42692 160.05728 22 ft 24 kts 65°
2026-04-26 09:07 -9.42628 160.05891 21 ft 25 kts 66°
2026-04-26 09:08 -9.42579 160.06017 27 ft 11 kts 71°
2026-04-26 09:08 -9.42550 160.06098 26 ft 13 kts 69°
2026-04-26 09:08 -9.42516 160.06193 24 ft 15 kts 68°
2026-04-26 09:08 -9.42470 160.06293 25 ft 16 kts 31°
2026-04-26 09:09 -9.42446 160.06340 25 ft 9 kts 180°
2026-04-26 09:09 -9.42480 160.06298 26 ft 0 kts 252°
2026-04-26 09:12 -9.42536 160.06162 24 ft 49 kts 247°
2026-04-26 09:12 -9.42734 160.05650 29 ft 106 kts 246°
2026-04-26 09:12 -9.43059 160.04838 225 ft 137 kts 247°
2026-04-26 09:12 -9.43379 160.03938 837 ft 137 kts 253°
2026-04-26 09:13 -9.43667 160.02929 1232 ft 154 kts 255°
2026-04-26 09:13 -9.43912 160.01868 1820 ft 160 kts 261°
2026-04-26 09:13 -9.44070 160.00715 2316 ft 170 kts 266°
2026-04-26 09:13 -9.44041 159.99509 2883 ft 174 kts 279°
2026-04-26 09:14 -9.43641 159.98258 2930 ft 208 kts 299°
2026-04-26 09:14 -9.42664 159.97075 3060 ft 217 kts 318°
2026-04-26 09:14 -9.41569 159.96286 4135 ft 182 kts 336°
2026-04-26 09:14 -9.40443 159.95696 4564 ft 193 kts 324°
2026-04-26 09:15 -9.39374 159.94691 4564 ft 219 kts 316°
2026-04-26 09:15 -9.38269 159.93740 5318 ft 199 kts 329°
2026-04-26 09:15 -9.36977 159.93290 5743 ft 205 kts 357°
2026-04-26 09:15 -9.35503 159.93649 5620 ft 231 kts 26°
2026-04-26 09:16 -9.34217 159.94525 6262 ft 215 kts 47°
2026-04-26 09:16 -9.33307 159.95676 6809 ft 206 kts 53°
2026-04-26 09:16 -9.32321 159.96759 7031 ft 216 kts 45°
2026-04-26 09:16 -9.31299 159.97924 7163 ft 223 kts 56°
2026-04-26 09:17 -9.30736 159.99389 7247 ft 230 kts 85°
2026-04-26 09:17 -9.30902 160.00464 7072 ft 244 kts 114°
2026-04-26 09:17 -9.32870 160.01577 6576 ft 256 kts 179°
2026-04-26 09:17 -9.34404 160.01459 7829 ft 196 kts 189°
2026-04-26 09:18 -9.35739 160.01150 8024 ft 209 kts 198°
2026-04-26 09:18 -9.37136 160.00371 7335 ft 251 kts 221°
2026-04-26 09:18 -9.38294 159.99091 7608 ft 232 kts 237°
2026-04-26 09:18 -9.38751 159.98169 8062 ft 212 kts 247°
2026-04-26 09:19 -9.39258 159.96783 8208 ft 216 kts 257°
2026-04-26 09:19 -9.39306 159.95175 7638 ft 245 kts 284°
2026-04-26 09:19 -9.38631 159.93611 7811 ft 224 kts 301°
2026-04-26 09:19 -9.37795 159.92459 8621 ft 193 kts 310°
2026-04-26 09:20 -9.36841 159.91420 8411 ft 217 kts 320°
2026-04-26 09:20 -9.35448 159.90598 7831 ft 244 kts 346°
2026-04-26 09:20 -9.33884 159.90532 8503 ft 205 kts
2026-04-26 09:20 -9.32493 159.90681 8783 ft 206 kts
2026-04-26 09:21 -9.31026 159.90983 8549 ft 225 kts 19°
2026-04-26 09:21 -9.29612 159.91722 8351 ft 228 kts 20°
2026-04-26 09:21 -9.28287 159.91046 5981 ft 246 kts 329°
2026-04-26 09:21 -9.27026 159.90341 7611 ft 189 kts 335°
2026-04-26 09:22 -9.25790 159.89816 7587 ft 207 kts 345°